When you browse on this site, cookies collect data to enhance your experience and personalize the content and advertising you see.
Visit our Privacy Policy to learn more. By continuing to use the site, you agree to this use of cookies and data.
EN

Hourly Weather Melihovo

Today, 7 August, Friday

Time Temperature Precipitation Wind Pressure Humidity
00:00 +16°C° 0 mm 2 mps 749 mmHg 83%
01:00 +15°C° 0 mm 2 mps 750 mmHg 84%
02:00 +15°C° 0 mm 2 mps 750 mmHg 85%
03:00 +15°C° 0 mm 2 mps 750 mmHg 85%
04:00 +14°C° 0 mm 2 mps 750 mmHg 86%
05:00 +14°C° 0 mm 2 mps 750 mmHg 87%
06:00 +16°C° 0 mm 2 mps 750 mmHg 82%
07:00 +18°C° 0 mm 2 mps 750 mmHg 77%
08:00 +20°C° 0 mm 2 mps 751 mmHg 72%
09:00 +21°C° 0 mm 2 mps 751 mmHg 68%
10:00 +23°C° 0 mm 2 mps 750 mmHg 64%
11:00 +24°C° 0 mm 3 mps 750 mmHg 59%
12:00 +24°C° 0 mm 3 mps 750 mmHg 59%
13:00 +24°C° 0 mm 2 mps 750 mmHg 59%
14:00 +25°C° 0 mm 2 mps 750 mmHg 59%
15:00 +24°C° 0 mm 2 mps 750 mmHg 62%
16:00 +24°C° 0 mm 2 mps 749 mmHg 66%
17:00 +24°C° 0 mm 2 mps 749 mmHg 70%
18:00 +21°C° 0 mm 2 mps 749 mmHg 77%
19:00 +19°C° 0 mm 2 mps 749 mmHg 83%
20:00 +19°C° 0 mm 1 mps 749 mmHg 90%
21:00 +18°C° 0 mm 1 mps 749 mmHg 91%
22:00 +18°C° 0 mm 1 mps 749 mmHg 93%
23:00 +16°C° 0 mm 1 mps 749 mmHg 94%

Tomorrow, 8 August, Saturday

Time Temperature Precipitation Wind Pressure Humidity
00:00 +16°C° 0 mm 1 mps 749 mmHg 94%
01:00 +15°C° 0 mm 1 mps 749 mmHg 94%
02:00 +15°C° 0 mm 1 mps 749 mmHg 94%
03:00 +15°C° 0 mm 1 mps 749 mmHg 94%
04:00 +15°C° 0 mm 1 mps 749 mmHg 94%
05:00 +15°C° 0 mm 1 mps 749 mmHg 94%
06:00 +18°C° 0 mm 1 mps 749 mmHg 87%
07:00 +20°C° 0 mm 1 mps 749 mmHg 81%
08:00 +21°C° 0 mm 1 mps 749 mmHg 74%
09:00 +23°C° 0 mm 1 mps 749 mmHg 69%
10:00 +24°C° 0 mm 2 mps 749 mmHg 65%
11:00 +25°C° 0 mm 2 mps 748 mmHg 61%
12:00 +25°C° 0.1 mm 2 mps 748 mmHg 61%
13:00 +25°C° 0.1 mm 2 mps 748 mmHg 61%
14:00 +26°C° 0.1 mm 2 mps 747 mmHg 61%
15:00 +25°C° 0 mm 2 mps 747 mmHg 64%
16:00 +25°C° 0 mm 2 mps 747 mmHg 67%
17:00 +25°C° 0 mm 2 mps 746 mmHg 70%
18:00 +23°C° 0.1 mm 2 mps 746 mmHg 77%
19:00 +20°C° 0.1 mm 2 mps 746 mmHg 84%
20:00 +20°C° 0.1 mm 1 mps 746 mmHg 90%
21:00 +19°C° 0 mm 1 mps 746 mmHg 91%
22:00 +18°C° 0 mm 1 mps 746 mmHg 93%
23:00 +17°C° 0 mm 2 mps 746 mmHg 94%

Day after tomorrow, 9 August, Sunday

Time Temperature Precipitation Wind Pressure Humidity
00:00 +17°C° 0 mm 2 mps 746 mmHg 94%
01:00 +16°C° 0 mm 2 mps 745 mmHg 95%
02:00 +16°C° 0 mm 2 mps 745 mmHg 95%
03:00 +16°C° 0 mm 2 mps 745 mmHg 95%
04:00 +16°C° 0 mm 2 mps 745 mmHg 95%
05:00 +16°C° 0 mm 2 mps 745 mmHg 95%
06:00 +17°C° 0 mm 2 mps 745 mmHg 89%
07:00 +19°C° 0 mm 2 mps 745 mmHg 83%
08:00 +21°C° 0 mm 2 mps 745 mmHg 76%
09:00 +23°C° 0.6 mm 2 mps 745 mmHg 76%
10:00 +23°C° 0.6 mm 2 mps 745 mmHg 76%
11:00 +24°C° 0.6 mm 2 mps 745 mmHg 76%
12:00 +24°C° 0.9 mm 2 mps 744 mmHg 74%
13:00 +25°C° 0.9 mm 2 mps 744 mmHg 73%
14:00 +25°C° 0.9 mm 2 mps 744 mmHg 71%
15:00 +25°C° 0.6 mm 2 mps 744 mmHg 75%
16:00 +24°C° 0.6 mm 2 mps 743 mmHg 78%
17:00 +24°C° 0.6 mm 2 mps 743 mmHg 82%
18:00 +23°C° 0.2 mm 2 mps 743 mmHg 85%
19:00 +20°C° 0.2 mm 2 mps 743 mmHg 89%
20:00 +19°C° 0.2 mm 2 mps 743 mmHg 92%
21:00 +18°C° 0 mm 2 mps 743 mmHg 93%
22:00 +18°C° 0 mm 2 mps 743 mmHg 93%
23:00 +17°C° 0 mm 2 mps 743 mmHg 94%

10 August, Monday

Time Temperature Precipitation Wind Pressure Humidity
00:00 +17°C° 0 mm 2 mps 743 mmHg 94%
01:00 +18°C° 0 mm 1 mps 743 mmHg 95%
02:00 +16°C° 0 mm 1 mps 743 mmHg 95%
03:00 +16°C° 0 mm 1 mps 743 mmHg 95%
04:00 +16°C° 0 mm 1 mps 743 mmHg 96%
05:00 +16°C° 0 mm 1 mps 743 mmHg 96%
06:00 +18°C° 0 mm 1 mps 743 mmHg 92%
07:00 +20°C° 0 mm 1 mps 743 mmHg 89%
08:00 +20°C° 0 mm 2 mps 743 mmHg 85%
09:00 +21°C° 0.4 mm 2 mps 743 mmHg 80%
10:00 +24°C° 0.4 mm 2 mps 743 mmHg 76%
11:00 +25°C° 0.4 mm 2 mps 743 mmHg 71%
12:00 +25°C° 1.1 mm 2 mps 743 mmHg 71%
13:00 +25°C° 1.1 mm 2 mps 743 mmHg 72%
14:00 +25°C° 1.1 mm 2 mps 742 mmHg 72%
15:00 +25°C° 0.7 mm 2 mps 742 mmHg 74%
16:00 +25°C° 0.7 mm 1 mps 742 mmHg 76%
17:00 +25°C° 0.7 mm 1 mps 742 mmHg 78%
18:00 +23°C° 0.3 mm 1 mps 742 mmHg 81%
19:00 +21°C° 0.3 mm 1 mps 742 mmHg 85%
20:00 +18°C° 0.3 mm 0 mps 742 mmHg 88%
21:00 +19°C° 0.6 mm 1 mps 741 mmHg 90%
22:00 +19°C° 0.6 mm 1 mps 741 mmHg 91%
23:00 +19°C° 0.6 mm 1 mps 741 mmHg 93%

11 August, Tuesday

Time Temperature Precipitation Wind Pressure Humidity
00:00 +18°C° 0.3 mm 1 mps 741 mmHg 94%
01:00 +18°C° 0.3 mm 1 mps 741 mmHg 94%
02:00 +18°C° 0.3 mm 1 mps 741 mmHg 95%
03:00 +16°C° 0 mm 1 mps 741 mmHg 96%
04:00 +16°C° 0 mm 2 mps 741 mmHg 96%
05:00 +16°C° 0 mm 2 mps 741 mmHg 97%
06:00 +17°C° 0 mm 2 mps 741 mmHg 95%
07:00 +18°C° 0 mm 2 mps 741 mmHg 92%
08:00 +19°C° 0 mm 2 mps 741 mmHg 90%
09:00 +20°C° 0.2 mm 2 mps 741 mmHg 87%
10:00 +21°C° 0.2 mm 3 mps 741 mmHg 83%
11:00 +22°C° 0.2 mm 3 mps 741 mmHg 80%
12:00 +22°C° 0.3 mm 3 mps 741 mmHg 78%
13:00 +22°C° 0.3 mm 3 mps 740 mmHg 75%
14:00 +22°C° 0.3 mm 3 mps 740 mmHg 73%
15:00 +22°C° 0.1 mm 3 mps 740 mmHg 73%
16:00 +21°C° 0.1 mm 3 mps 740 mmHg 72%
17:00 +20°C° 0.1 mm 3 mps 740 mmHg 71%
18:00 +19°C° 0 mm 3 mps 740 mmHg 75%
19:00 +17°C° 0 mm 2 mps 740 mmHg 78%
20:00 +15°C° 0 mm 2 mps 740 mmHg 81%
21:00 +14°C° 0 mm 2 mps 740 mmHg 83%
22:00 +14°C° 0 mm 2 mps 740 mmHg 85%
23:00 +13°C° 0 mm 2 mps 740 mmHg 87%

12 August, Wednesday

Time Temperature Precipitation Wind Pressure Humidity
00:00 +12°C° 0 mm 3 mps 740 mmHg 90%
01:00 +12°C° 0 mm 3 mps 740 mmHg 93%
02:00 +12°C° 0 mm 3 mps 740 mmHg 96%
03:00 +13°C° 0 mm 3 mps 740 mmHg 93%
04:00 +13°C° 0 mm 3 mps 741 mmHg 89%
05:00 +14°C° 0 mm 4 mps 741 mmHg 86%
06:00 +14°C° 0 mm 4 mps 741 mmHg 85%
07:00 +14°C° 0 mm 4 mps 741 mmHg 84%
08:00 +14°C° 0 mm 5 mps 741 mmHg 83%
09:00 +14°C° 0 mm 5 mps 741 mmHg 82%
10:00 +14°C° 0 mm 5 mps 741 mmHg 81%
11:00 +15°C° 0 mm 5 mps 741 mmHg 80%
12:00 +15°C° 0 mm 4 mps 741 mmHg 80%
13:00 +15°C° 0 mm 4 mps 741 mmHg 79%
14:00 +15°C° 0 mm 4 mps 741 mmHg 79%
15:00 +15°C° 0.1 mm 4 mps 741 mmHg 78%
16:00 +15°C° 0.1 mm 4 mps 741 mmHg 78%
17:00 +16°C° 0.1 mm 3 mps 742 mmHg 78%
18:00 +14°C° 0.1 mm 3 mps 742 mmHg 81%
19:00 +13°C° 0.1 mm 3 mps 742 mmHg 84%
20:00 +13°C° 0.1 mm 2 mps 742 mmHg 87%
21:00 +12°C° 0 mm 2 mps 742 mmHg 88%
22:00 +10°C° 0 mm 2 mps 742 mmHg 89%
23:00 +9°C° 0 mm 2 mps 743 mmHg 89%
Show more